Year,Month,Day,Hour,Minute,Value (Times are PST for temperature in C)
2014,08,26,00,00,19.00
2014,08,26,00,01,18.90
2014,08,26,00,02,18.90
2014,08,26,00,03,18.90
2014,08,26,00,04,18.90
2014,08,26,00,05,18.90
2014,08,26,00,06,18.90
2014,08,26,00,07,18.90
2014,08,26,00,08,18.80
2014,08,26,00,09,18.80
2014,08,26,00,10,18.80
2014,08,26,00,11,18.80
2014,08,26,00,12,18.70
2014,08,26,00,13,18.70
2014,08,26,00,14,18.70
2014,08,26,00,15,18.70
2014,08,26,00,16,18.70
2014,08,26,00,17,18.70
2014,08,26,00,18,18.60
2014,08,26,00,19,18.60
2014,08,26,00,20,18.60
2014,08,26,00,21,18.60
2014,08,26,00,22,18.60
2014,08,26,00,23,18.60
2014,08,26,00,24,18.60
2014,08,26,00,25,18.60
2014,08,26,00,26,18.60
2014,08,26,00,27,18.60
2014,08,26,00,28,18.60
2014,08,26,00,29,18.60
2014,08,26,00,30,18.60
2014,08,26,00,31,18.60
2014,08,26,00,32,18.60
2014,08,26,00,33,18.60
2014,08,26,00,34,18.60
2014,08,26,00,35,18.70
2014,08,26,00,36,18.70
2014,08,26,00,37,18.80
2014,08,26,00,38,18.80
2014,08,26,00,39,18.90
2014,08,26,00,40,18.90
2014,08,26,00,41,18.90
2014,08,26,00,42,19.00
2014,08,26,00,43,19.00
2014,08,26,00,44,19.10
2014,08,26,00,45,19.20
2014,08,26,00,46,19.20
2014,08,26,00,47,19.20
2014,08,26,00,48,19.30
2014,08,26,00,49,19.30
2014,08,26,00,50,19.40
2014,08,26,00,51,19.40
2014,08,26,00,52,19.50
2014,08,26,00,53,19.50
2014,08,26,00,54,19.60
2014,08,26,00,55,19.60
2014,08,26,00,56,19.60
2014,08,26,00,57,19.70
2014,08,26,00,58,19.70
2014,08,26,00,59,19.70
2014,08,26,01,00,19.70
2014,08,26,01,01,19.70
2014,08,26,01,02,19.70
2014,08,26,01,03,19.60
2014,08,26,01,04,19.50
2014,08,26,01,05,19.40
2014,08,26,01,06,19.40
2014,08,26,01,07,19.30
2014,08,26,01,08,19.20
2014,08,26,01,09,19.10
2014,08,26,01,10,19.00
2014,08,26,01,11,18.90
2014,08,26,01,12,18.80
2014,08,26,01,13,18.80
2014,08,26,01,14,18.70
2014,08,26,01,15,18.70
2014,08,26,01,16,18.60
2014,08,26,01,17,18.60
2014,08,26,01,18,18.50
2014,08,26,01,19,18.50
2014,08,26,01,20,18.50
2014,08,26,01,21,18.50
2014,08,26,01,22,18.50
2014,08,26,01,23,18.60
2014,08,26,01,24,18.60
2014,08,26,01,25,18.60
2014,08,26,01,26,18.60
2014,08,26,01,27,18.60
2014,08,26,01,28,18.50
2014,08,26,01,29,18.50
2014,08,26,01,30,18.50
2014,08,26,01,31,18.50
2014,08,26,01,32,18.40
2014,08,26,01,33,18.40
2014,08,26,01,34,18.40
2014,08,26,01,35,18.40
2014,08,26,01,36,18.40
2014,08,26,01,37,18.40
2014,08,26,01,38,18.40
2014,08,26,01,39,18.50
2014,08,26,01,40,18.50
2014,08,26,01,41,18.50
2014,08,26,01,42,18.50
2014,08,26,01,43,18.60
2014,08,26,01,44,18.60
2014,08,26,01,45,18.60
2014,08,26,01,46,18.60
2014,08,26,01,47,18.60
2014,08,26,01,48,18.70
2014,08,26,01,49,18.70
2014,08,26,01,50,18.70
2014,08,26,01,51,18.70
2014,08,26,01,52,18.70
2014,08,26,01,53,18.70
2014,08,26,01,54,18.70
2014,08,26,01,55,18.70
2014,08,26,01,56,18.70
2014,08,26,01,57,18.70
2014,08,26,01,58,18.80
2014,08,26,01,59,18.80
2014,08,26,02,00,18.80
2014,08,26,02,01,18.80
2014,08,26,02,02,18.90
2014,08,26,02,03,18.90
2014,08,26,02,04,18.90
2014,08,26,02,05,19.00
2014,08,26,02,06,19.00
2014,08,26,02,07,19.00
2014,08,26,02,08,19.10
2014,08,26,02,09,19.10
2014,08,26,02,10,19.10
2014,08,26,02,11,19.10
2014,08,26,02,12,19.10
2014,08,26,02,13,19.10
2014,08,26,02,14,19.20
2014,08,26,02,15,19.20
2014,08,26,02,16,19.20
2014,08,26,02,17,19.20
2014,08,26,02,18,19.20
2014,08,26,02,19,19.20
2014,08,26,02,20,19.20
2014,08,26,02,21,19.20
2014,08,26,02,22,19.20
2014,08,26,02,23,19.20
2014,08,26,02,24,19.20
2014,08,26,02,25,19.20
2014,08,26,02,26,19.20
2014,08,26,02,27,19.20
2014,08,26,02,28,19.20
2014,08,26,02,29,19.20
2014,08,26,02,30,19.10
2014,08,26,02,31,19.10
2014,08,26,02,32,19.10
2014,08,26,02,33,19.10
2014,08,26,02,34,19.00
2014,08,26,02,35,19.00
2014,08,26,02,36,18.90
2014,08,26,02,37,18.90
2014,08,26,02,38,18.90
2014,08,26,02,39,18.90
2014,08,26,02,40,18.90
2014,08,26,02,41,18.90
2014,08,26,02,42,18.80
2014,08,26,02,43,18.80
2014,08,26,02,44,18.80
2014,08,26,02,45,18.80
2014,08,26,02,46,18.80
2014,08,26,02,47,18.80
2014,08,26,02,48,18.80
2014,08,26,02,49,18.80
2014,08,26,02,50,18.80
2014,08,26,02,51,18.80
2014,08,26,02,52,18.80
2014,08,26,02,53,18.80
2014,08,26,02,54,18.80
2014,08,26,02,55,18.80
2014,08,26,02,56,18.80
2014,08,26,02,57,18.80
2014,08,26,02,58,18.70
2014,08,26,02,59,18.70
2014,08,26,03,00,18.70
2014,08,26,03,01,18.70
2014,08,26,03,02,18.70
2014,08,26,03,03,18.70
2014,08,26,03,04,18.70
2014,08,26,03,05,18.60
2014,08,26,03,06,18.60
2014,08,26,03,07,18.60
2014,08,26,03,08,18.60
2014,08,26,03,09,18.60
2014,08,26,03,10,18.60
2014,08,26,03,11,18.60
2014,08,26,03,12,18.60
2014,08,26,03,13,18.60
2014,08,26,03,14,18.60
2014,08,26,03,15,18.60
2014,08,26,03,16,18.60
2014,08,26,03,17,18.60
2014,08,26,03,18,18.60
2014,08,26,03,19,18.60
2014,08,26,03,20,18.60
2014,08,26,03,21,18.60
2014,08,26,03,22,18.60
2014,08,26,03,23,18.60
2014,08,26,03,24,18.60
2014,08,26,03,25,18.60
2014,08,26,03,26,18.60
2014,08,26,03,27,18.60
2014,08,26,03,28,18.60
2014,08,26,03,29,18.60
2014,08,26,03,30,18.60
2014,08,26,03,31,18.60
2014,08,26,03,32,18.60
2014,08,26,03,33,18.60
2014,08,26,03,34,18.50
2014,08,26,03,35,18.50
2014,08,26,03,36,18.50
2014,08,26,03,37,18.50
2014,08,26,03,38,18.40
2014,08,26,03,39,18.40
2014,08,26,03,40,18.40
2014,08,26,03,41,18.40
2014,08,26,03,42,18.40
2014,08,26,03,43,18.40
2014,08,26,03,44,18.40
2014,08,26,03,45,18.40
2014,08,26,03,46,18.40
2014,08,26,03,47,18.40
2014,08,26,03,48,18.40
2014,08,26,03,49,18.40
2014,08,26,03,50,18.40
2014,08,26,03,51,18.40
2014,08,26,03,52,18.40
2014,08,26,03,53,18.30
2014,08,26,03,54,18.30
2014,08,26,03,55,18.30
2014,08,26,03,56,18.30
2014,08,26,03,57,18.30
2014,08,26,03,58,18.20
2014,08,26,03,59,18.20
2014,08,26,04,00,18.20
2014,08,26,04,01,18.20
2014,08,26,04,02,18.10
2014,08,26,04,03,18.10
2014,08,26,04,04,18.10
2014,08,26,04,05,18.10
2014,08,26,04,06,18.10
2014,08,26,04,07,18.10
2014,08,26,04,08,18.10
2014,08,26,04,09,18.10
2014,08,26,04,10,18.10
2014,08,26,04,11,18.10
2014,08,26,04,12,18.10
2014,08,26,04,13,18.00
2014,08,26,04,14,18.00
2014,08,26,04,15,18.00
2014,08,26,04,16,18.00
2014,08,26,04,17,17.90
2014,08,26,04,18,17.90
2014,08,26,04,19,17.90
2014,08,26,04,20,17.80
2014,08,26,04,21,17.80
2014,08,26,04,22,17.80
2014,08,26,04,23,17.70
2014,08,26,04,24,17.70
2014,08,26,04,25,17.70
2014,08,26,04,26,17.60
2014,08,26,04,27,17.60
2014,08,26,04,28,17.60
2014,08,26,04,29,17.50
2014,08,26,04,30,17.50
2014,08,26,04,31,17.40
2014,08,26,04,32,17.40
2014,08,26,04,33,17.40
2014,08,26,04,34,17.40
2014,08,26,04,35,17.30
2014,08,26,04,36,17.30
2014,08,26,04,37,17.30
2014,08,26,04,38,17.30
2014,08,26,04,39,17.30
2014,08,26,04,40,17.30
2014,08,26,04,41,17.30
2014,08,26,04,42,17.30
2014,08,26,04,43,17.30
2014,08,26,04,44,17.30
2014,08,26,04,45,17.30
2014,08,26,04,46,17.30
2014,08,26,04,47,17.40
2014,08,26,04,48,17.40
2014,08,26,04,49,17.40
2014,08,26,04,50,17.40
2014,08,26,04,51,17.50
2014,08,26,04,52,17.50
2014,08,26,04,53,17.60
2014,08,26,04,54,17.60
2014,08,26,04,55,17.60
2014,08,26,04,56,17.60
2014,08,26,04,57,17.60
2014,08,26,04,58,17.70
2014,08,26,04,59,17.70
2014,08,26,05,00,17.70
2014,08,26,05,01,17.70
2014,08,26,05,02,17.70
2014,08,26,05,03,17.70
2014,08,26,05,04,17.70
2014,08,26,05,05,17.70
2014,08,26,05,06,17.70
2014,08,26,05,07,17.70
2014,08,26,05,08,17.70
2014,08,26,05,09,17.60
2014,08,26,05,10,17.60
2014,08,26,05,11,17.60
2014,08,26,05,12,17.50
2014,08,26,05,13,17.50
2014,08,26,05,14,17.40
2014,08,26,05,15,17.40
2014,08,26,05,16,17.40
2014,08,26,05,17,17.40
2014,08,26,05,18,17.40
2014,08,26,05,19,17.30
2014,08,26,05,20,17.30
2014,08,26,05,21,17.30
2014,08,26,05,22,17.30
2014,08,26,05,23,17.30
2014,08,26,05,24,17.30
2014,08,26,05,25,17.30
2014,08,26,05,26,17.30
2014,08,26,05,27,17.20
2014,08,26,05,28,17.20
2014,08,26,05,29,17.20
2014,08,26,05,30,17.20
2014,08,26,05,31,17.20
2014,08,26,05,32,17.20
2014,08,26,05,33,17.10
2014,08,26,05,34,17.10
2014,08,26,05,35,17.10
2014,08,26,05,36,17.10
2014,08,26,05,37,17.00
2014,08,26,05,38,17.00
2014,08,26,05,39,17.00
2014,08,26,05,40,16.90
2014,08,26,05,41,16.90
2014,08,26,05,42,16.90
2014,08,26,05,43,16.90
2014,08,26,05,44,16.80
2014,08,26,05,45,16.80
2014,08,26,05,46,16.80
2014,08,26,05,47,16.70
2014,08,26,05,48,16.70
2014,08,26,05,49,16.70
2014,08,26,05,50,16.70
2014,08,26,05,51,16.70
2014,08,26,05,52,16.70
2014,08,26,05,53,16.70
2014,08,26,05,54,16.60
2014,08,26,05,55,16.60
2014,08,26,05,56,16.60
2014,08,26,05,57,16.60
2014,08,26,05,58,16.60
2014,08,26,05,59,16.60
2014,08,26,06,00,16.60
2014,08,26,06,01,16.60
2014,08,26,06,02,16.60
2014,08,26,06,03,16.60
2014,08,26,06,04,16.60
2014,08,26,06,05,16.60
2014,08,26,06,06,16.60
2014,08,26,06,07,16.60
2014,08,26,06,08,16.60
2014,08,26,06,09,16.60
2014,08,26,06,10,16.60
2014,08,26,06,11,16.60
2014,08,26,06,12,16.60
2014,08,26,06,13,16.60
2014,08,26,06,14,16.60
2014,08,26,06,15,16.60
2014,08,26,06,16,16.60
2014,08,26,06,17,16.60
2014,08,26,06,18,16.60
2014,08,26,06,19,16.50
2014,08,26,06,20,16.50
2014,08,26,06,21,16.50
2014,08,26,06,22,16.40
2014,08,26,06,23,16.40
2014,08,26,06,24,16.40
2014,08,26,06,25,16.40
2014,08,26,06,26,16.40
2014,08,26,06,27,16.40
2014,08,26,06,28,16.40
2014,08,26,06,29,16.40
2014,08,26,06,30,16.30
2014,08,26,06,31,16.30
2014,08,26,06,32,16.30
2014,08,26,06,33,16.30
2014,08,26,06,34,16.30
2014,08,26,06,35,16.30
2014,08,26,06,36,16.30
2014,08,26,06,37,16.30
2014,08,26,06,38,16.30
2014,08,26,06,39,16.30
2014,08,26,06,40,16.30
2014,08,26,06,41,16.30
2014,08,26,06,42,16.30
2014,08,26,06,43,16.30
2014,08,26,06,44,16.30
2014,08,26,06,45,16.30
2014,08,26,06,46,16.30
2014,08,26,06,47,16.30
2014,08,26,06,48,16.30
2014,08,26,06,49,16.20
2014,08,26,06,50,16.20
2014,08,26,06,51,16.20
2014,08,26,06,52,16.20
2014,08,26,06,53,16.20
2014,08,26,06,54,16.20
2014,08,26,06,55,16.20
2014,08,26,06,56,16.20
2014,08,26,06,57,16.20
2014,08,26,06,58,16.20
2014,08,26,06,59,16.20
2014,08,26,07,00,16.20
2014,08,26,07,01,16.10
2014,08,26,07,02,16.10
2014,08,26,07,03,16.20
2014,08,26,07,04,16.20
2014,08,26,07,05,16.20
2014,08,26,07,06,16.20
2014,08,26,07,07,16.20
2014,08,26,07,08,16.20
2014,08,26,07,09,16.30
2014,08,26,07,10,16.30
2014,08,26,07,11,16.30
2014,08,26,07,12,16.40
2014,08,26,07,13,16.50
2014,08,26,07,14,16.50
2014,08,26,07,15,16.60
2014,08,26,07,16,16.70
2014,08,26,07,17,16.70
2014,08,26,07,18,16.80
2014,08,26,07,19,16.80
2014,08,26,07,20,16.80
2014,08,26,07,21,16.90
2014,08,26,07,22,16.90
2014,08,26,07,23,17.00
2014,08,26,07,24,17.10
2014,08,26,07,25,17.10
2014,08,26,07,26,17.20
2014,08,26,07,27,17.20
2014,08,26,07,28,17.30
2014,08,26,07,29,17.40
2014,08,26,07,30,17.40
2014,08,26,07,31,17.50
2014,08,26,07,32,17.60
2014,08,26,07,33,17.70
2014,08,26,07,34,17.70
2014,08,26,07,35,17.80
2014,08,26,07,36,17.90
2014,08,26,07,37,18.00
2014,08,26,07,38,18.10
2014,08,26,07,39,18.30
2014,08,26,07,40,18.40
2014,08,26,07,41,18.60
2014,08,26,07,42,18.70
2014,08,26,07,43,18.80
2014,08,26,07,44,19.00
2014,08,26,07,45,19.10
2014,08,26,07,46,19.20
2014,08,26,07,47,19.30
2014,08,26,07,48,19.40
2014,08,26,07,49,19.40
2014,08,26,07,50,19.50
2014,08,26,07,51,19.60
2014,08,26,07,52,19.70
2014,08,26,07,53,19.80
2014,08,26,07,54,19.90
2014,08,26,07,55,20.00
2014,08,26,07,56,20.00
2014,08,26,07,57,20.10
2014,08,26,07,58,20.10
2014,08,26,07,59,20.10
2014,08,26,08,00,20.10
2014,08,26,08,01,20.10
2014,08,26,08,02,20.10
2014,08,26,08,03,20.20
2014,08,26,08,04,20.20
2014,08,26,08,05,20.20
2014,08,26,08,06,20.30
2014,08,26,08,07,20.30
2014,08,26,08,08,20.30
2014,08,26,08,09,20.30
2014,08,26,08,10,20.30
2014,08,26,08,11,20.30
2014,08,26,08,12,20.20
2014,08,26,08,13,20.20
2014,08,26,08,14,20.20
2014,08,26,08,15,20.30
2014,08,26,08,16,20.30
2014,08,26,08,17,20.30
2014,08,26,08,18,20.40
2014,08,26,08,19,20.40
2014,08,26,08,20,20.50
2014,08,26,08,21,20.60
2014,08,26,08,22,20.60
2014,08,26,08,23,20.70
2014,08,26,08,24,20.80
2014,08,26,08,25,20.80
2014,08,26,08,26,20.90
2014,08,26,08,27,20.90
2014,08,26,08,28,21.00
2014,08,26,08,29,21.00
2014,08,26,08,30,21.00
2014,08,26,08,31,21.10
2014,08,26,08,32,21.10
2014,08,26,08,33,21.10
2014,08,26,08,34,21.10
2014,08,26,08,35,21.10
2014,08,26,08,36,21.10
2014,08,26,08,37,21.00
2014,08,26,08,38,21.00
2014,08,26,08,39,21.00
2014,08,26,08,40,21.00
2014,08,26,08,41,21.00
2014,08,26,08,42,21.00
2014,08,26,08,43,21.00
2014,08,26,08,44,21.10
2014,08,26,08,45,21.10
2014,08,26,08,46,21.10
2014,08,26,08,47,21.20
2014,08,26,08,48,21.30
2014,08,26,08,49,21.40
2014,08,26,08,50,21.40
2014,08,26,08,51,21.50
2014,08,26,08,52,21.60
2014,08,26,08,53,21.70
2014,08,26,08,54,21.70
2014,08,26,08,55,21.70
2014,08,26,08,56,21.70
2014,08,26,08,57,21.70
2014,08,26,08,58,21.60
2014,08,26,08,59,21.60
2014,08,26,09,00,21.60
2014,08,26,09,01,21.60
2014,08,26,09,02,21.60
2014,08,26,09,03,21.60
2014,08,26,09,04,21.60
2014,08,26,09,05,21.70
2014,08,26,09,06,21.80
2014,08,26,09,07,21.80
2014,08,26,09,08,21.80
2014,08,26,09,09,21.80
2014,08,26,09,10,21.90
2014,08,26,09,11,21.90
2014,08,26,09,12,21.90
2014,08,26,09,13,22.00
2014,08,26,09,14,22.10
2014,08,26,09,15,22.20
2014,08,26,09,16,22.10
2014,08,26,09,17,22.10
2014,08,26,09,18,22.20
2014,08,26,09,19,22.20
2014,08,26,09,20,22.20
2014,08,26,09,21,22.30
2014,08,26,09,22,22.20
2014,08,26,09,23,22.20
2014,08,26,09,24,22.00
2014,08,26,09,25,21.90
2014,08,26,09,26,21.80
2014,08,26,09,27,21.70
2014,08,26,09,28,21.70
2014,08,26,09,29,21.70
2014,08,26,09,30,21.70
2014,08,26,09,31,21.80
2014,08,26,09,32,21.80
2014,08,26,09,33,21.80
2014,08,26,09,34,21.80
2014,08,26,09,35,21.90
2014,08,26,09,36,21.90
2014,08,26,09,37,22.00
2014,08,26,09,38,22.10
2014,08,26,09,39,22.20
2014,08,26,09,40,22.30
2014,08,26,09,41,22.40
2014,08,26,09,42,22.50
2014,08,26,09,43,22.50
2014,08,26,09,44,22.50
2014,08,26,09,45,22.40
2014,08,26,09,46,22.30
2014,08,26,09,47,22.20
2014,08,26,09,48,22.20
2014,08,26,09,49,22.10
2014,08,26,09,50,22.10
2014,08,26,09,51,22.10
2014,08,26,09,52,22.10
2014,08,26,09,53,22.20
2014,08,26,09,54,22.30
2014,08,26,09,55,22.30
2014,08,26,09,56,22.20
2014,08,26,09,57,22.20
2014,08,26,09,58,22.10
2014,08,26,09,59,22.10
2014,08,26,10,00,22.00
2014,08,26,10,01,21.90
2014,08,26,10,02,21.80
2014,08,26,10,03,21.80
2014,08,26,10,04,21.70
2014,08,26,10,05,21.70
2014,08,26,10,06,21.70
2014,08,26,10,07,21.60
2014,08,26,10,08,21.50
2014,08,26,10,09,21.50
2014,08,26,10,10,21.50
2014,08,26,10,11,21.40
2014,08,26,10,12,21.40
2014,08,26,10,13,21.40
2014,08,26,10,14,21.40
2014,08,26,10,15,21.40
2014,08,26,10,16,21.40
2014,08,26,10,17,21.40
2014,08,26,10,18,21.50
2014,08,26,10,19,21.60
2014,08,26,10,20,21.60
2014,08,26,10,21,21.80
2014,08,26,10,22,21.80
2014,08,26,10,23,22.00
2014,08,26,10,24,22.20
2014,08,26,10,25,22.30
2014,08,26,10,26,22.50
2014,08,26,10,27,22.60
2014,08,26,10,28,22.60
2014,08,26,10,29,22.80
2014,08,26,10,30,22.80
2014,08,26,10,31,23.00
2014,08,26,10,32,23.10
2014,08,26,10,33,23.10
2014,08,26,10,34,23.10
2014,08,26,10,35,23.10
2014,08,26,10,36,23.10
2014,08,26,10,37,23.10
2014,08,26,10,38,23.00
2014,08,26,10,39,23.00
2014,08,26,10,40,23.00
2014,08,26,10,41,23.10
2014,08,26,10,42,23.20
2014,08,26,10,43,23.20
2014,08,26,10,44,23.20
2014,08,26,10,45,23.20
2014,08,26,10,46,23.20
2014,08,26,10,47,23.20
2014,08,26,10,48,23.10
2014,08,26,10,49,23.10
2014,08,26,10,50,23.10
2014,08,26,10,51,23.10
2014,08,26,10,52,23.10
2014,08,26,10,53,23.00
2014,08,26,10,54,23.00
2014,08,26,10,55,22.90
2014,08,26,10,56,22.90
2014,08,26,10,57,22.80
2014,08,26,10,58,22.80
2014,08,26,10,59,22.80
2014,08,26,11,00,22.80
2014,08,26,11,01,22.80
2014,08,26,11,02,22.90
2014,08,26,11,03,22.90
2014,08,26,11,04,23.00
2014,08,26,11,05,23.00
2014,08,26,11,06,23.00
2014,08,26,11,07,23.00
2014,08,26,11,08,23.00
2014,08,26,11,09,22.90
2014,08,26,11,10,22.90
2014,08,26,11,11,22.90
2014,08,26,11,12,22.80
2014,08,26,11,13,22.80
2014,08,26,11,14,22.70
2014,08,26,11,15,22.70
2014,08,26,11,16,22.60
2014,08,26,11,17,22.60
2014,08,26,11,18,22.70
2014,08,26,11,19,22.60
2014,08,26,11,20,22.60
2014,08,26,11,21,22.60
2014,08,26,11,22,22.60
2014,08,26,11,23,22.60
2014,08,26,11,24,22.70
2014,08,26,11,25,22.70
2014,08,26,11,26,22.70
2014,08,26,11,27,22.60
2014,08,26,11,28,22.60
2014,08,26,11,29,22.60
2014,08,26,11,30,22.60
2014,08,26,11,31,22.60
2014,08,26,11,32,22.60
2014,08,26,11,33,22.60
2014,08,26,11,34,22.70
2014,08,26,11,35,22.80
2014,08,26,11,36,22.80
2014,08,26,11,37,22.80
2014,08,26,11,38,22.80
2014,08,26,11,39,22.80
2014,08,26,11,40,22.80
2014,08,26,11,41,22.70
2014,08,26,11,42,22.70
2014,08,26,11,43,22.60
2014,08,26,11,44,22.60
2014,08,26,11,45,22.60
2014,08,26,11,46,22.70
2014,08,26,11,47,22.70
2014,08,26,11,48,22.80
2014,08,26,11,49,22.90
2014,08,26,11,50,22.80
2014,08,26,11,51,22.80
2014,08,26,11,52,22.80
2014,08,26,11,53,22.90
2014,08,26,11,54,22.90
2014,08,26,11,55,23.00
2014,08,26,11,56,23.00
2014,08,26,11,57,23.10
2014,08,26,11,58,23.20
2014,08,26,11,59,23.20
2014,08,26,12,00,23.20
2014,08,26,12,01,23.20
2014,08,26,12,02,23.30
2014,08,26,12,03,23.30
2014,08,26,12,04,23.30
2014,08,26,12,05,23.30
2014,08,26,12,06,23.40
2014,08,26,12,07,23.60
2014,08,26,12,08,23.80
2014,08,26,12,09,24.00
2014,08,26,12,10,24.00
2014,08,26,12,11,24.00
2014,08,26,12,12,24.10
2014,08,26,12,13,24.10
2014,08,26,12,14,24.20
2014,08,26,12,15,24.20
2014,08,26,12,16,24.20
2014,08,26,12,17,24.30
2014,08,26,12,18,24.30
2014,08,26,12,19,24.30
2014,08,26,12,20,24.30
2014,08,26,12,21,24.10
2014,08,26,12,22,23.90
2014,08,26,12,23,23.70
2014,08,26,12,24,23.50
2014,08,26,12,25,23.40
2014,08,26,12,26,23.50
2014,08,26,12,27,23.60
2014,08,26,12,28,23.50
2014,08,26,12,29,23.50
2014,08,26,12,30,23.50
2014,08,26,12,31,23.60
2014,08,26,12,32,23.50
2014,08,26,12,33,23.40
2014,08,26,12,34,23.40
2014,08,26,12,35,23.30
2014,08,26,12,36,23.10
2014,08,26,12,37,22.90
2014,08,26,12,38,22.70
2014,08,26,12,39,22.60
2014,08,26,12,40,22.60
2014,08,26,12,41,22.50
2014,08,26,12,42,22.50
2014,08,26,12,43,22.50
2014,08,26,12,44,22.60
2014,08,26,12,45,22.60
2014,08,26,12,46,22.60
2014,08,26,12,47,22.60
2014,08,26,12,48,22.70
2014,08,26,12,49,22.70
2014,08,26,12,50,22.80
2014,08,26,12,51,22.90
2014,08,26,12,52,22.90
2014,08,26,12,53,22.80
2014,08,26,12,54,22.80
2014,08,26,12,55,22.80
2014,08,26,12,56,22.80
2014,08,26,12,57,22.90
2014,08,26,12,58,23.00
2014,08,26,12,59,23.20
2014,08,26,13,00,23.40
2014,08,26,13,01,23.50
2014,08,26,13,02,23.70
2014,08,26,13,03,23.80
2014,08,26,13,04,23.80
2014,08,26,13,05,23.80
2014,08,26,13,06,23.90
2014,08,26,13,07,23.90
2014,08,26,13,08,23.90
2014,08,26,13,09,24.00
2014,08,26,13,10,24.00
2014,08,26,13,11,24.10
2014,08,26,13,12,24.10
2014,08,26,13,13,24.10
2014,08,26,13,14,24.00
2014,08,26,13,15,24.00
2014,08,26,13,16,24.10
2014,08,26,13,17,24.10
2014,08,26,13,18,24.20
2014,08,26,13,19,24.20
2014,08,26,13,20,24.20
2014,08,26,13,21,24.20
2014,08,26,13,22,24.10
2014,08,26,13,23,24.00
2014,08,26,13,24,23.90
2014,08,26,13,25,23.90
2014,08,26,13,26,23.80
2014,08,26,13,27,23.80
2014,08,26,13,28,23.70
2014,08,26,13,29,23.60
2014,08,26,13,30,23.50
2014,08,26,13,31,23.50
2014,08,26,13,32,23.40
2014,08,26,13,33,23.40
2014,08,26,13,34,23.50
2014,08,26,13,35,23.50
2014,08,26,13,36,23.50
2014,08,26,13,37,23.40
2014,08,26,13,38,23.40
2014,08,26,13,39,23.30
2014,08,26,13,40,23.40
2014,08,26,13,41,23.40
2014,08,26,13,42,23.40
2014,08,26,13,43,23.40
2014,08,26,13,44,23.40
2014,08,26,13,45,23.40
2014,08,26,13,46,23.40
2014,08,26,13,47,23.40
2014,08,26,13,48,23.40
2014,08,26,13,49,23.40
2014,08,26,13,50,23.40
2014,08,26,13,51,23.50
2014,08,26,13,52,23.60
2014,08,26,13,53,23.60
2014,08,26,13,54,23.80
2014,08,26,13,55,23.80
2014,08,26,13,56,23.90
2014,08,26,13,57,24.00
2014,08,26,13,58,24.00
2014,08,26,13,59,24.00
2014,08,26,14,00,24.00
2014,08,26,14,01,24.00
2014,08,26,14,02,24.00
2014,08,26,14,03,24.00
2014,08,26,14,04,24.00
2014,08,26,14,05,24.00
2014,08,26,14,06,23.90
2014,08,26,14,07,23.90
2014,08,26,14,08,23.80
2014,08,26,14,09,23.80
2014,08,26,14,10,23.70
2014,08,26,14,11,23.70
2014,08,26,14,12,23.70
2014,08,26,14,13,23.70
2014,08,26,14,14,23.80
2014,08,26,14,15,23.80
2014,08,26,14,16,23.90
2014,08,26,14,17,23.90
2014,08,26,14,18,24.00
2014,08,26,14,19,24.00
2014,08,26,14,20,24.10
2014,08,26,14,21,24.10
2014,08,26,14,22,24.10
2014,08,26,14,23,24.10
2014,08,26,14,24,24.00
2014,08,26,14,25,24.00
2014,08,26,14,26,24.00
2014,08,26,14,27,24.10
2014,08,26,14,28,24.10
2014,08,26,14,29,24.10
2014,08,26,14,30,24.20
2014,08,26,14,31,24.20
2014,08,26,14,32,24.20
2014,08,26,14,33,24.20
2014,08,26,14,34,24.10
2014,08,26,14,35,24.10
2014,08,26,14,36,24.10
2014,08,26,14,37,24.10
2014,08,26,14,38,24.10
2014,08,26,14,39,24.10
2014,08,26,14,40,24.10
2014,08,26,14,41,24.10
2014,08,26,14,42,24.20
2014,08,26,14,43,24.20
2014,08,26,14,44,24.20
2014,08,26,14,45,24.20
2014,08,26,14,46,24.20
2014,08,26,14,47,24.10
2014,08,26,14,48,24.10
2014,08,26,14,49,24.10
2014,08,26,14,50,24.20
2014,08,26,14,51,24.20
2014,08,26,14,52,24.30
2014,08,26,14,53,24.30
2014,08,26,14,54,24.40
2014,08,26,14,55,24.40
2014,08,26,14,56,24.50
2014,08,26,14,57,24.50
2014,08,26,14,58,24.60
2014,08,26,14,59,24.60
2014,08,26,15,00,24.60
2014,08,26,15,01,24.60
2014,08,26,15,02,24.70
2014,08,26,15,03,24.70
2014,08,26,15,04,24.80
2014,08,26,15,05,24.90
2014,08,26,15,06,25.00
2014,08,26,15,07,25.10
2014,08,26,15,08,25.10
2014,08,26,15,09,25.10
2014,08,26,15,10,25.00
2014,08,26,15,11,24.90
2014,08,26,15,12,24.80
2014,08,26,15,13,24.70
2014,08,26,15,14,24.50
2014,08,26,15,15,24.40
2014,08,26,15,16,24.30
2014,08,26,15,17,24.30
2014,08,26,15,18,24.20
2014,08,26,15,19,24.20
2014,08,26,15,20,24.20
2014,08,26,15,21,24.20
2014,08,26,15,22,24.30
2014,08,26,15,23,24.40
2014,08,26,15,24,24.50
2014,08,26,15,25,24.50
2014,08,26,15,26,24.60
2014,08,26,15,27,24.70
2014,08,26,15,28,24.80
2014,08,26,15,29,24.90
2014,08,26,15,30,25.00
2014,08,26,15,31,25.00
2014,08,26,15,32,25.00
2014,08,26,15,33,25.00
2014,08,26,15,34,25.00
2014,08,26,15,35,25.00
2014,08,26,15,36,25.10
2014,08,26,15,37,25.10
2014,08,26,15,38,25.20
2014,08,26,15,39,25.30
2014,08,26,15,40,25.30
2014,08,26,15,41,25.40
2014,08,26,15,42,25.50
2014,08,26,15,43,25.60
2014,08,26,15,44,25.60
2014,08,26,15,45,25.70
2014,08,26,15,46,25.80
2014,08,26,15,47,25.90
2014,08,26,15,48,25.90
2014,08,26,15,49,25.90
2014,08,26,15,50,25.90
2014,08,26,15,51,25.90
2014,08,26,15,52,25.90
2014,08,26,15,53,25.90
2014,08,26,15,54,25.90
2014,08,26,15,55,25.80
2014,08,26,15,56,25.80
2014,08,26,15,57,25.80
2014,08,26,15,58,25.80
2014,08,26,15,59,25.80
2014,08,26,16,00,25.80
2014,08,26,16,01,25.90
2014,08,26,16,02,25.90
2014,08,26,16,03,26.00
2014,08,26,16,04,26.10
2014,08,26,16,05,26.20
2014,08,26,16,06,26.20
2014,08,26,16,07,26.20
2014,08,26,16,08,26.20
2014,08,26,16,09,26.20
2014,08,26,16,10,26.20
2014,08,26,16,11,26.20
2014,08,26,16,12,26.20
2014,08,26,16,13,26.30
2014,08,26,16,14,26.30
2014,08,26,16,15,26.20
2014,08,26,16,16,26.20
2014,08,26,16,17,26.20
2014,08,26,16,18,26.20
2014,08,26,16,19,26.30
2014,08,26,16,20,26.30
2014,08,26,16,21,26.30
2014,08,26,16,22,26.30
2014,08,26,16,23,26.30
2014,08,26,16,24,26.30
2014,08,26,16,25,26.30
2014,08,26,16,26,26.30
2014,08,26,16,27,26.30
2014,08,26,16,28,26.30
2014,08,26,16,29,26.40
2014,08,26,16,30,26.50
2014,08,26,16,31,26.50
2014,08,26,16,32,26.60
2014,08,26,16,33,26.50
2014,08,26,16,34,26.50
2014,08,26,16,35,26.50
2014,08,26,16,36,26.60
2014,08,26,16,37,26.60
2014,08,26,16,38,26.70
2014,08,26,16,39,26.70
2014,08,26,16,40,26.70
2014,08,26,16,41,26.80
2014,08,26,16,42,26.80
2014,08,26,16,43,26.80
2014,08,26,16,44,26.90
2014,08,26,16,45,27.00
2014,08,26,16,46,27.10
2014,08,26,16,47,27.10
2014,08,26,16,48,27.20
2014,08,26,16,49,27.20
2014,08,26,16,50,27.20
2014,08,26,16,51,27.20
2014,08,26,16,52,27.20
2014,08,26,16,53,27.10
2014,08,26,16,54,27.10
2014,08,26,16,55,27.00
2014,08,26,16,56,26.90
2014,08,26,16,57,26.60
2014,08,26,16,58,26.50
2014,08,26,16,59,26.30
2014,08,26,17,00,26.10
2014,08,26,17,01,25.90
2014,08,26,17,02,25.70
2014,08,26,17,03,25.60
2014,08,26,17,04,25.50
2014,08,26,17,05,25.40
2014,08,26,17,06,25.40
2014,08,26,17,07,25.40
2014,08,26,17,08,25.30
2014,08,26,17,09,25.30
2014,08,26,17,10,25.30
2014,08,26,17,11,25.30
2014,08,26,17,12,25.40
2014,08,26,17,13,25.40
2014,08,26,17,14,25.40
2014,08,26,17,15,25.40
2014,08,26,17,16,25.40
2014,08,26,17,17,25.40
2014,08,26,17,18,25.40
2014,08,26,17,19,25.40